Location: Berlijn
(52.5200°N, 13.4050°E)
Time: 04:46:31
(UTC+02:00)

Envisat - Pass Details

Date: 30 September 2021
Orbit: 764 x 766 km, 98.2° (Epoch: 26 October)

Event Time Altitude Azimuth Distance (km) Brightness Sun altitude
Rises 19:10:47 0° 228° (SW) 3,226 7.1 -4.7°
Reaches altitude 10° 19:15:47 10° 272° (W) 2,309 7.4 -5.4°
Maximum altitude 19:16:21 10° 278° (W) 2,298 7.3 -5.5°
Drops below altitude 10° 19:16:55 10° 285° (WNW) 2,311 7.1 -5.6°
Sets 19:21:58 0° 329° (NNW) 3,245 6.8 -6.4°
